Theta_e
292 292 291 291 291 291 290 289 289 288 287 287 288 288 288 286 285 286 286 286 284 284 284 285 285 284 284 284 284 285 286 286 286 287 288 288 288 288 288 288 289 283 276 276 278 276 275 276 276 275 276 275 275 275 275 275 275 276 277 278 278 280 281
291 291 291 291 290 290 289 288 288 286 287 287 287 286 285 285 285 285 285 284 283 283 283 283 283 282 282 283 284 284 284 285 285 285 286 286 287 288 287 288 285 281 277 273 275 275 276 275 276 274 276 275 274 274 274 273 273 274 275 276 277 279 280
291 290 290 290 290 290 289 288 288 287 287 287 286 285 285 284 284 284 284 283 283 282 282 282 282 282 281 282 282 283 284 283 283 285 285 285 286 286 286 285 284 281 277 273 274 275 273 274 274 274 274 275 275 274 274 273 273 273 273 273 275 277 278
290 289 289 289 289 289 288 287 287 286 287 286 286 286 285 284 284 284 284 283 282 282 281 281 281 280 280 281 281 282 282 282 283 283 284 284 285 284 283 283 283 282 278 275 272 273 273 274 273 273 273 274 274 273 273 273 272 272 272 273 273 275 277
289 289 288 288 288 287 287 286 286 286 285 285 286 285 284 284 283 283 282 282 282 281 281 280 280 279 279 280 280 280 281 281 280 281 282 282 282 282 282 282 281 280 279 276 274 272 273 273 272 272 272 272 271 271 272 272 271 271 272 272 273 273 273
287 287 288 288 288 287 287 286 286 285 284 284 284 284 284 283 282 282 282 281 281 280 280 280 280 279 279 280 279 279 279 279 279 280 280 280 280 280 281 281 280 279 278 276 274 272 270 271 270 270 270 272 272 270 270 270 270 270 271 272 272 272 272
286 286 286 287 286 286 285 285 285 284 284 283 283 283 282 282 281 280 280 280 280 280 280 279 279 279 279 279 280 279 278 277 277 278 279 279 279 280 280 279 279 278 276 274 272 271 271 270 270 270 269 269 271 272 272 270 270 270 271 272 273 271 271
285 285 285 285 285 285 285 284 284 284 283 282 282 281 281 281 280 279 278 278 278 278 278 278 278 278 278 279 279 278 278 278 278 278 278 278 279 279 279 278 278 277 276 274 272 270 269 270 269 269 269 269 269 270 270 272 272 270 271 271 272 273 272
285 284 284 284 284 284 283 283 283 283 282 281 280 281 280 279 279 278 277 277 277 277 277 276 276 276 277 277 276 276 277 277 278 278 277 277 278 278 278 277 276 275 274 273 271 270 270 270 269 268 267 267 268 268 269 271 272 274 273 273 272 271 271
284 284 283 283 283 282 282 282 282 281 280 281 280 279 279 279 278 277 277 276 275 275 275 275 275 275 274 274 275 275 275 275 275 276 277 276 277 277 277 276 276 276 275 274 272 271 270 269 269 268 268 268 270 271 271 270 271 271 271 272 272 272 270
282 282 283 282 281 280 280 280 280 279 280 280 279 279 279 278 277 277 276 275 274 274 274 274 274 274 274 274 274 274 274 274 274 275 275 276 277 278 278 277 276 276 275 274 273 272 271 270 270 269 270 270 270 269 270 270 271 271 271 270 270 270 270
281 281 281 281 281 280 280 280 279 279 280 280 279 279 278 277 277 276 275 275 274 274 274 273 273 274 274 274 274 273 273 273 273 273 274 274 274 275 275 277 277 276 275 274 273 271 272 272 271 270 270 269 269 269 269 269 270 270 271 271 272 273 272
280 280 280 280 279 279 279 279 278 279 280 280 279 279 278 278 277 276 275 275 274 274 273 273 273 272 273 273 273 273 273 273 272 272 273 273 273 273 273 274 274 276 277 277 274 273 272 273 271 269 269 269 269 270 268 268 268 269 270 271 272 272 270
279 279 279 279 279 279 279 278 277 278 280 280 280 279 278 277 276 276 275 275 274 274 273 273 273 272 272 272 273 273 272 272 272 272 272 272 272 272 271 271 272 272 273 275 275 274 272 273 272 271 270 270 270 269 268 268 268 268 269 269 269 270 270
278 278 278 278 278 279 278 278 277 278 279 280 280 279 278 277 276 275 275 274 274 274 274 273 273 273 272 272 272 273 272 272 272 272 271 271 271 271 271 271 271 272 273 273 274 275 273 271 272 271 270 269 270 270 270 270 269 269 269 269 268 268 269
279 278 278 278 278 277 277 277 277 278 279 279 279 279 276 276 275 275 274 274 274 274 274 274 274 273 272 272 272 272 272 272 272 271 270 270 269 269 269 269 270 271 272 272 272 272 271 271 271 271 269 269 269 269 269 269 269 268 268 267 267 267 269
279 279 278 277 277 276 276 276 276 277 278 279 279 278 276 275 275 274 273 273 273 273 273 274 274 273 273 272 272 272 272 272 271 271 270 269 268 268 269 268 269 271 272 273 273 272 272 273 273 272 272 271 270 269 269 269 267 266 267 267 267 267 268
278 278 278 277 276 276 275 275 276 276 278 279 279 277 275 274 274 273 273 272 273 273 273 273 273 273 273 272 272 272 272 272 271 270 269 268 267 267 266 266 267 269 270 271 271 271 271 271 271 271 271 271 270 269 269 269 267 268 267 267 268 268 268
277 277 276 276 275 275 275 275 275 276 277 278 279 277 275 274 273 272 272 272 272 273 273 273 272 272 272 272 271 272 272 272 271 270 269 268 267 267 266 266 267 267 267 267 267 268 267 267 268 269 269 269 268 268 268 269 269 268 267 267 268 267 267
277 276 275 275 275 274 275 275 275 276 277 278 278 277 275 274 273 272 272 272 272 272 272 272 272 272 271 272 271 272 272 271 271 270 270 270 269 267 266 267 267 268 268 267 268 267 268 266 266 265 266 266 266 266 266 268 268 268 268 267 268 268 267
276 275 275 274 274 274 274 275 275 276 277 277 278 277 274 274 274 273 273 272 271 272 271 271 271 271 271 271 271 271 272 272 271 270 270 271 271 270 269 267 267 267 267 267 267 266 267 266 266 266 266 266 265 265 266 266 266 267 267 267 267 267 267
275 275 274 274 274 274 274 274 274 276 276 277 277 276 275 274 274 274 273 272 271 272 271 271 271 271 270 271 271 271 272 272 271 269 270 270 269 268 267 267 267 267 267 267 267 267 266 267 266 266 266 266 266 265 265 265 265 265 266 267 267 267 266
274 274 273 273 273 273 273 274 274 274 275 276 276 276 275 274 274 274 274 273 271 271 271 272 271 271 270 270 271 271 272 271 270 268 269 268 267 267 267 267 267 267 267 267 267 267 266 266 267 266 266 266 266 266 265 265 265 265 264 265 265 266 266
273 273 272 272 272 272 273 273 274 274 274 275 275 275 275 274 274 274 273 274 273 272 272 271 270 270 270 270 271 271 271 270 268 268 268 267 266 266 266 267 267 267 267 267 266 266 266 266 267 267 267 266 266 267 265 265 264 263 263 263 264 264 263
273 272 272 271 271 271 272 273 273 274 273 273 274 274 274 274 273 273 272 272 273 272 272 270 270 269 269 270 271 271 270 268 267 267 267 266 265 266 267 267 267 267 266 266 265 266 266 267 267 267 267 267 266 263 263 263 262 261 261 261 261 261 261
272 271 271 271 272 271 271 271 272 272 273 272 273 273 273 273 272 271 271 271 272 270 269 269 269 268 269 269 269 269 268 267 267 266 265 265 265 267 267 267 267 266 266 265 265 265 266 267 267 266 265 263 263 263 263 263 263 263 261 261 261 261 261
271 271 271 270 271 271 271 270 271 271 272 272 273 273 273 272 271 270 270 270 270 268 268 267 268 268 268 268 268 267 267 266 265 265 265 265 266 267 267 267 267 266 266 266 266 265 265 266 265 264 262 262 262 262 264 264 263 263 263 262 262 261 261
271 270 270 270 271 270 270 269 269 270 270 271 272 272 273 272 271 270 270 269 269 269 268 267 267 267 267 266 265 265 265 265 265 265 265 265 266 266 266 265 264 264 266 266 266 266 265 264 263 262 263 263 263 263 263 263 262 262 263 263 262 261 261
272 272 272 271 271 270 269 269 268 269 271 271 271 272 271 270 270 269 269 268 267 266 266 266 265 265 264 264 264 263 264 264 264 264 265 264 265 265 265 264 264 264 264 264 264 263 263 263 263 262 263 262 262 262 262 263 261 262 261 262 262 261 262
272 273 272 271 272 272 271 270 270 271 270 270 270 270 270 270 269 269 268 266 266 266 265 264 264 264 264 263 263 263 263 263 263 263 262 263 262 263 264 264 264 264 264 264 263 263 263 262 262 262 262 262 261 262 262 262 261 261 261 260 261 260 261
272 272 272 272 271 272 271 271 270 270 270 270 270 270 270 269 269 267 266 266 265 265 264 263 263 263 263 263 263 263 263 263 262 262 262 262 262 263 263 262 263 263 263 263 262 262 262 262 262 261 262 261 261 261 261 261 260 260 260 260 260 260 261
271 272 272 271 271 271 271 270 270 269 270 269 269 269 269 269 268 266 266 265 266 264 264 264 263 263 262 263 263 263 263 263 262 263 263 263 262 262 262 262 262 262 263 262 262 261 260 261 261 261 261 261 261 260 261 261 260 260 259 259 260 260 260
269 270 270 271 271 271 271 270 270 269 270 269 269 269 268 268 267 266 265 266 265 264 263 264 264 263 263 263 263 263 263 263 263 264 264 264 263 263 262 262 262 262 262 261 261 261 261 261 261 261 260 260 260 260 260 260 260 260 260 259 259 259 259
268 267 268 268 269 269 270 270 269 269 269 269 269 268 267 266 265 266 266 266 265 265 263 263 263 263 263 263 263 264 264 264 264 264 264 265 265 265 264 262 262 262 261 261 261 261 261 261 261 260 260 260 260 260 260 260 260 260 259 259 259 259 259
269 268 266 266 267 267 267 267 268 268 268 268 268 267 267 266 264 263 264 265 266 265 265 264 264 263 263 264 264 264 265 265 265 265 265 265 265 265 264 263 262 262 262 261 261 261 261 261 260 260 260 260 260 260 259 259 259 260 260 259 259 260 259
268 267 266 265 266 266 266 266 267 267 267 268 267 267 265 264 263 263 263 264 265 265 266 265 265 265 265 265 265 265 265 265 265 265 265 265 264 263 263 263 262 261 261 261 262 261 261 260 260 260 260 260 260 259 259 260 260 259 259 259 259 260 260
Wind_Speed
7 7 6 6 6 6 6 5 5 4 3 3 3 3 3 2 3 4 4 3 3 2 3 4 4 3 2 2 4 4 4 3 3 3 3 4 4 4 3 5 5 6 8 4 5 7 7 7 8 6 5 6 5 4 4 6 6 5 4 4 4 5 7
6 6 7 7 7 6 6 5 5 3 3 4 4 4 2 3 4 4 3 2 4 4 4 4 4 4 4 4 5 3 4 4 4 4 5 5 6 4 5 3 3 5 8 8 6 7 7 7 5 5 5 5 6 5 4 5 4 4 4 3 3 3 4
7 7 7 7 6 6 6 6 6 5 5 5 4 4 4 4 4 5 5 5 5 5 4 5 5 5 4 4 5 5 4 4 4 5 7 7 5 4 3 3 4 9 6 11 8 7 8 7 6 4 7 5 5 5 5 5 4 4 3 3 3 3 4
7 7 7 7 7 7 6 6 6 6 6 6 6 6 5 5 5 4 4 5 5 5 5 5 5 4 5 6 5 5 5 4 4 5 4 6 2 3 4 3 3 3 9 8 10 7 7 7 6 4 5 5 5 5 5 4 4 4 4 4 3 3 3
6 7 7 7 7 7 7 6 6 6 6 5 5 6 5 4 4 4 4 4 5 5 5 5 6 5 6 6 6 5 5 4 6 4 4 4 4 4 5 5 5 5 7 11 10 10 6 6 5 5 5 5 6 5 4 4 4 4 4 4 3 2 2
5 5 8 7 7 6 6 6 6 6 4 5 5 4 4 4 4 4 5 5 5 5 5 6 5 6 6 7 7 6 5 5 9 4 5 6 5 5 6 6 6 7 8 8 9 10 9 6 6 6 5 4 4 6 6 4 3 3 3 4 4 3 3
5 5 5 5 4 5 5 5 4 5 4 4 5 5 5 5 5 4 4 4 4 5 5 5 5 6 6 7 6 6 7 7 7 6 7 5 6 5 7 6 6 6 7 8 10 7 6 8 6 6 6 3 2 4 5 6 6 4 4 3 4 5 4
6 5 4 5 5 5 4 4 5 5 5 5 5 5 5 5 5 4 4 4 4 4 4 4 4 4 4 4 5 6 7 7 8 6 6 5 6 6 7 7 7 8 8 8 7 7 9 6 8 6 4 5 4 4 3 5 5 7 6 5 4 3 4
5 5 5 5 5 5 5 5 6 5 5 5 5 5 5 5 5 5 5 5 4 4 4 4 3 3 2 4 4 5 6 5 6 7 7 5 5 6 6 7 6 7 7 7 8 8 6 8 7 6 8 8 8 8 7 6 3 5 5 5 4 4 2
6 6 6 6 6 6 5 6 5 5 8 7 6 6 5 4 5 5 5 5 5 4 4 3 3 3 5 6 6 6 6 6 5 3 6 8 7 7 6 8 8 8 8 9 9 9 10 10 8 9 9 8 7 4 5 6 5 5 5 4 3 3 3
6 7 6 7 7 6 6 5 4 7 10 10 9 7 6 6 6 5 5 5 5 6 6 4 4 5 6 7 7 7 8 7 6 7 6 6 6 6 9 9 8 8 9 9 8 8 8 9 10 9 9 8 8 6 6 6 6 5 6 6 6 5 4
6 6 6 5 5 6 6 5 5 10 11 11 12 9 6 6 6 6 6 6 5 5 5 6 5 5 5 4 6 7 7 8 9 9 8 7 6 5 3 2 6 10 8 8 9 9 9 9 9 9 9 7 7 7 5 4 4 5 6 6 6 4 3
5 6 5 5 6 6 6 5 8 11 12 12 13 13 8 6 6 7 7 7 7 6 6 6 6 6 4 4 8 7 7 8 9 10 11 10 10 9 8 6 6 6 1 8 8 9 9 7 7 8 6 7 7 6 7 6 5 4 4 3 3 2 4
6 5 6 6 6 6 5 5 8 12 12 13 14 13 11 5 7 6 6 7 7 6 7 8 8 7 6 6 6 6 8 8 8 8 7 6 6 6 7 8 8 6 6 4 3 7 8 5 7 8 8 7 8 9 8 8 6 6 5 4 3 3 3
7 7 6 6 6 6 5 5 9 12 13 14 14 13 10 5 5 5 5 6 6 6 6 6 6 7 8 8 7 7 9 9 9 8 7 7 7 6 6 5 5 4 3 3 3 4 6 7 5 6 8 8 5 5 4 4 5 6 5 4 3 1 1
6 6 7 6 6 6 5 4 10 12 14 15 15 15 7 6 6 6 6 6 5 5 5 5 6 6 7 7 7 9 12 9 9 9 10 8 7 7 6 6 6 8 8 6 6 6 7 6 7 9 9 8 7 6 7 7 6 5 5 4 3 2 3
6 6 6 6 6 6 5 4 9 13 14 15 16 15 7 7 6 5 6 6 6 5 5 5 5 6 7 7 7 11 13 13 11 10 10 9 9 6 6 6 5 9 12 14 15 15 14 14 15 15 15 14 12 8 8 6 5 4 5 4 3 3 4
4 4 5 6 7 7 6 5 8 14 15 16 18 13 7 7 6 6 6 6 6 6 6 5 4 5 7 8 8 14 15 15 11 11 11 12 12 11 8 6 4 5 8 12 13 13 13 13 14 14 14 13 13 12 9 6 5 6 5 4 4 3 4
4 4 4 5 5 7 8 5 7 14 15 17 19 12 7 7 7 7 7 7 7 5 5 6 5 5 5 6 11 17 16 16 10 10 11 11 11 10 9 8 8 8 8 7 8 8 8 8 7 6 5 8 10 9 6 4 3 6 5 5 5 4 3
5 6 5 4 5 5 7 6 6 11 16 18 19 17 8 7 8 9 9 8 8 8 7 6 6 7 7 10 15 17 17 16 11 9 9 9 8 10 10 10 10 9 9 9 8 8 8 6 5 4 5 5 6 5 4 4 3 4 4 4 3 4 4
4 5 5 5 7 7 8 6 7 9 16 17 19 18 12 8 8 8 9 9 8 8 9 9 7 7 10 13 17 17 17 16 14 8 9 8 8 7 9 12 9 9 9 9 10 9 8 6 5 5 4 4 4 4 4 4 4 4 4 4 4 4 4
5 6 6 6 7 8 8 7 9 8 13 18 16 19 16 9 8 8 8 8 7 7 7 8 8 8 11 14 18 17 16 16 13 9 4 3 7 13 17 10 8 9 8 7 7 7 7 6 6 6 6 6 6 6 5 5 4 4 4 4 4 4 4
6 6 6 6 6 6 6 6 7 10 10 15 16 20 18 16 11 10 8 9 9 9 7 6 7 7 15 17 19 17 17 15 12 9 4 9 11 13 14 11 8 7 8 8 7 7 7 7 6 6 6 6 6 6 6 5 5 5 5 5 4 4 3
6 6 7 7 7 6 6 6 7 8 11 11 16 17 17 18 14 12 9 6 6 6 5 6 6 9 17 17 17 18 16 14 11 6 10 11 12 14 11 7 7 7 7 6 6 7 6 6 6 5 5 5 5 4 5 5 4 4 4 4 4 4 5
6 6 6 6 6 6 5 5 6 6 8 11 13 16 16 15 14 13 13 8 3 3 5 8 11 13 17 17 17 16 14 9 8 10 11 11 12 11 7 7 7 7 6 6 6 6 5 5 5 4 3 3 4 4 4 4 3 2 2 2 2 3 4
4 4 5 6 6 6 6 6 6 6 6 7 10 12 14 14 13 12 12 10 5 7 9 11 12 15 15 13 12 9 8 5 6 9 9 9 9 6 5 6 6 6 6 5 5 5 4 4 4 3 4 4 4 4 4 5 4 5 4 4 4 4 6
5 5 5 6 6 6 5 5 5 6 6 5 5 7 8 10 8 10 9 6 3 7 7 9 10 9 11 10 11 8 7 6 7 6 6 6 5 4 4 4 4 5 5 4 4 3 3 3 4 4 4 4 4 4 4 5 4 4 3 4 4 4 6
6 6 6 6 6 6 5 5 5 6 7 7 6 8 8 9 7 7 6 5 5 6 8 8 8 9 7 8 6 6 5 5 5 4 4 5 4 3 2 3 6 4 3 3 3 3 4 4 4 4 4 4 4 4 4 4 4 4 4 4 4 4 6
5 5 5 4 4 4 6 6 6 8 7 5 6 7 8 9 10 9 7 8 10 7 7 7 7 6 7 6 7 6 7 5 5 5 4 4 5 4 4 4 4 5 4 4 4 4 4 4 4 4 4 4 4 4 4 5 4 5 5 4 5 6 6
5 5 5 5 6 5 7 5 4 3 8 9 8 7 8 7 8 9 8 11 14 11 8 8 9 10 10 8 6 7 7 6 6 5 5 4 4 3 4 5 5 5 5 4 5 4 4 4 4 4 5 4 4 4 4 5 4 5 5 5 6 6 6
9 8 6 5 6 6 6 7 2 6 10 11 11 10 9 9 10 12 14 17 11 6 7 9 9 9 6 6 6 6 6 6 6 6 5 5 5 4 5 5 5 5 4 3 4 4 3 4 4 4 4 4 4 4 3 4 5 4 5 5 6 6 6
6 7 8 7 7 7 6 4 5 7 11 11 12 11 10 11 13 14 18 18 13 8 7 7 7 7 6 7 7 7 6 6 6 6 7 6 6 6 6 6 6 5 4 4 3 3 3 3 4 4 4 4 4 2 4 4 4 5 5 5 5 6 6
6 6 7 8 8 9 9 6 5 8 11 12 13 12 12 14 15 17 18 16 7 6 6 6 6 7 7 8 8 8 8 8 8 8 8 8 8 8 7 6 5 6 5 4 4 4 4 4 4 3 2 3 3 3 4 4 5 5 5 5 6 6 5
6 8 9 7 8 7 8 7 6 8 9 11 13 13 14 14 12 17 20 14 8 8 7 7 8 8 9 9 8 8 8 8 8 8 8 7 7 6 5 5 6 6 5 5 5 5 5 5 5 3 5 4 4 4 4 5 4 5 5 6 6 6 6
3 5 9 7 6 8 8 5 4 4 6 9 10 11 12 12 9 9 9 7 5 8 9 9 10 8 8 7 8 8 7 7 7 6 6 5 5 4 4 4 5 5 5 5 5 5 5 5 5 5 4 5 5 5 5 6 6 6 6 6 6 6 6
4 4 5 7 9 11 10 8 5 3 4 7 10 13 14 8 8 7 8 7 7 6 4 4 4 5 5 5 4 4 4 4 4 4 3 3 3 4 4 4 4 4 5 5 5 5 5 5 5 5 4 5 5 6 6 6 6 6 6 6 6 6 5
Wind_Direction
203 203 206 206 209 209 206 202 197 196 203 216 221 221 221 193 196 210 218 199 187 191 207 212 202 186 166 148 179 185 179 192 177 185 197 196 197 196 186 185 181 129 123 86 105 125 135 138 136 130 137 127 121 108 93 87 78 73 74 76 80 73 67
195 199 201 205 208 209 207 203 198 193 205 215 212 212 200 202 202 206 201 182 197 190 197 196 187 180 177 181 195 168 175 173 174 182 185 195 191 197 191 191 128 125 135 143 139 132 129 140 153 129 149 143 137 130 111 98 93 67 69 84 98 106 92
191 195 200 203 206 206 206 204 200 202 205 212 210 209 207 204 205 205 197 199 199 188 184 184 191 183 171 172 179 182 181 162 175 186 192 191 195 175 142 136 136 137 127 141 145 139 142 149 153 148 153 142 129 125 122 114 103 99 85 65 70 105 102
187 193 197 203 202 204 204 202 203 203 208 209 210 212 208 202 205 206 204 201 191 183 182 187 180 184 173 176 170 172 172 176 173 177 170 176 169 127 120 114 112 92 128 145 133 158 153 151 141 118 116 111 116 125 131 122 110 104 103 108 99 99 117
185 191 197 203 203 201 201 201 199 202 205 207 211 211 206 199 198 200 199 198 190 181 184 182 189 169 175 172 161 165 175 170 160 155 154 150 138 133 129 130 130 120 131 138 141 137 135 132 118 115 127 140 137 126 107 114 123 129 133 123 108 108 89
182 193 200 204 204 201 201 198 201 204 203 202 202 204 201 192 196 194 192 192 188 186 186 185 178 173 176 179 172 172 154 150 151 148 149 140 139 134 132 125 120 124 129 120 125 138 137 151 142 138 147 157 156 149 147 137 124 117 130 149 153 144 141
188 196 198 201 197 200 198 197 197 200 199 197 194 193 186 187 187 181 180 181 179 179 182 178 172 174 176 179 176 155 157 148 141 144 142 142 132 133 127 123 127 124 114 118 125 122 131 138 143 150 152 161 181 173 172 158 153 159 157 168 168 154 157
189 189 192 195 196 199 193 192 197 200 194 194 191 183 183 183 174 171 168 167 170 168 166 165 167 170 172 167 159 158 155 155 152 144 136 144 142 135 122 122 125 125 127 127 127 135 144 146 145 141 107 127 160 163 185 192 175 164 165 171 165 177 163
182 184 189 194 196 192 191 193 200 198 187 183 178 179 179 179 173 169 165 165 163 163 155 155 152 140 134 110 130 146 155 160 157 147 139 149 140 131 121 120 122 124 126 128 128 132 138 143 153 156 152 168 185 190 182 168 179 161 154 155 155 160 170
186 188 189 189 191 189 188 197 199 193 192 189 178 177 174 167 173 170 167 160 155 152 151 140 131 123 117 122 123 121 124 117 126 128 136 149 153 142 131 137 140 147 153 149 153 159 158 161 171 169 176 172 180 159 119 144 169 162 151 151 169 145 170
186 191 191 190 186 187 193 196 191 182 195 197 183 171 173 175 175 171 164 168 165 164 160 145 128 128 129 125 122 118 115 106 96 97 104 130 152 164 154 144 146 158 158 159 159 155 164 170 167 173 173 174 158 152 164 163 167 161 153 176 177 190 144
192 189 188 188 190 192 197 200 172 188 198 199 193 182 175 172 170 171 176 174 171 164 156 146 143 141 140 141 134 127 114 105 103 101 98 93 82 77 46 142 158 152 158 163 157 162 177 171 171 158 166 156 154 161 150 149 155 164 175 181 196 199 166
187 195 194 194 192 200 196 198 171 193 199 201 195 189 177 180 169 174 181 175 171 162 159 156 148 142 139 125 130 122 122 119 110 100 97 90 81 66 62 57 36 12 82 162 150 161 167 175 141 144 167 161 158 144 143 147 160 172 179 186 186 171 115
197 194 196 199 201 204 201 189 175 193 200 201 199 193 188 181 170 180 175 172 170 168 168 165 157 151 147 152 148 137 133 126 119 118 108 98 89 89 70 60 51 63 47 43 139 154 157 129 146 167 154 144 144 148 159 162 166 160 163 173 154 73 96
199 200 195 200 201 208 204 201 177 194 201 205 204 196 187 175 171 178 171 170 172 171 170 169 159 151 150 153 154 156 146 137 135 125 114 107 100 91 83 66 57 49 69 91 77 100 89 111 105 99 117 131 134 116 112 126 133 143 132 123 103 105 181
202 197 193 199 194 203 207 195 187 196 203 206 203 196 185 174 177 181 165 168 166 168 163 166 160 147 148 154 153 158 151 141 135 129 124 117 108 99 85 69 60 70 73 77 81 92 112 114 117 128 135 136 134 120 118 109 109 113 129 138 163 195 171
203 200 195 191 193 197 203 187 192 198 203 205 201 194 188 171 182 175 161 166 161 163 168 174 168 162 156 152 155 159 155 148 139 134 131 127 125 118 108 100 78 75 80 88 95 101 106 115 124 129 132 137 136 138 139 134 131 157 161 163 173 187 181
210 205 198 194 199 192 193 195 192 198 205 204 203 189 171 169 177 165 166 160 160 171 174 179 164 162 160 159 156 162 159 157 146 143 142 137 134 130 124 123 118 99 92 90 95 103 108 117 128 136 142 144 146 147 156 160 174 162 161 185 201 195 176
212 209 206 203 197 193 202 199 196 201 206 205 205 190 171 175 175 169 176 167 166 169 170 174 178 176 173 157 156 163 164 164 161 148 153 147 139 142 144 149 145 131 122 115 104 100 89 83 84 95 126 149 144 154 171 191 150 153 182 194 197 198 178
214 208 211 197 196 202 206 206 201 200 205 206 205 193 176 182 181 181 174 171 169 177 184 171 181 184 178 160 162 167 168 171 173 157 154 154 154 149 153 152 151 148 141 136 134 135 133 115 98 95 97 97 131 149 182 190 192 198 207 220 223 209 213
215 217 224 216 216 217 214 208 206 202 206 206 206 193 179 192 192 181 169 171 166 174 173 180 182 180 180 172 172 171 171 174 177 168 162 171 168 162 138 141 146 147 139 141 139 140 144 140 150 151 153 156 161 171 183 196 204 217 227 231 233 227 225
221 225 229 229 220 222 219 209 210 209 206 207 205 198 189 195 198 181 168 166 173 175 175 175 176 179 177 174 175 172 172 173 173 168 175 148 95 116 135 142 134 140 144 139 144 150 158 165 173 177 184 184 186 186 183 189 191 204 218 230 247 253 250
217 221 226 227 224 224 218 214 211 213 207 207 202 198 195 202 204 187 181 179 178 183 174 165 167 167 172 176 177 174 172 171 162 162 160 123 134 138 132 128 144 147 152 155 158 163 169 175 178 185 189 191 192 185 173 182 197 192 199 224 242 258 269
217 221 229 227 232 228 224 218 220 215 216 209 201 196 196 200 204 192 199 193 188 178 164 160 156 162 169 174 174 173 172 165 156 164 145 141 138 137 139 142 140 155 156 156 159 169 177 182 188 187 190 190 187 181 165 173 163 178 186 216 228 236 250
225 226 232 233 235 234 223 212 216 220 215 215 205 201 198 196 199 200 199 205 203 161 173 173 162 154 165 169 171 171 167 153 152 145 147 141 139 141 152 151 157 157 155 162 173 178 178 179 182 185 169 124 119 101 116 150 161 162 181 175 243 280 276
235 237 236 242 242 237 232 218 219 222 216 214 211 207 198 190 191 193 198 204 193 167 144 146 146 156 160 161 162 157 163 165 160 151 144 138 146 159 153 160 157 158 165 174 169 172 174 166 152 149 125 119 147 171 191 180 190 184 199 193 220 237 244
239 238 239 242 244 241 234 225 219 221 216 208 202 202 191 186 181 183 181 192 141 126 130 141 146 158 158 153 146 127 111 110 121 127 137 155 173 176 160 166 172 170 168 162 164 164 160 146 134 119 127 171 182 198 197 183 192 202 208 185 208 230 258
243 238 240 241 239 241 235 232 224 220 215 208 196 197 188 185 172 171 168 149 141 137 139 141 135 133 137 133 117 110 122 139 151 152 157 170 180 182 160 112 72 85 147 162 158 152 142 142 150 175 189 183 194 201 194 178 192 205 211 198 193 217 243
258 253 248 239 229 223 239 237 229 224 212 215 209 194 178 179 179 178 167 162 147 129 132 130 138 136 137 140 143 134 154 151 153 162 162 156 170 166 156 167 185 188 189 181 175 185 182 179 177 186 188 191 198 202 190 182 189 205 203 208 200 228 238
270 279 270 254 251 239 241 233 243 188 195 205 209 208 193 177 164 160 144 143 146 146 145 156 157 164 165 159 150 159 158 162 166 163 166 174 181 173 176 185 193 200 194 183 192 192 184 187 182 191 188 198 204 200 187 193 195 198 197 203 215 222 233
274 278 274 266 271 262 247 267 251 180 195 199 202 199 190 174 161 146 145 146 139 145 148 160 164 167 160 151 155 160 164 162 165 170 169 176 178 197 193 197 200 202 188 181 190 191 192 183 191 201 194 199 203 200 201 179 197 207 212 215 222 230 234
306 290 277 266 259 263 268 235 217 198 196 196 190 187 177 172 158 153 158 163 154 143 165 163 153 153 158 161 166 172 166 168 172 174 179 177 179 199 202 195 205 186 172 189 188 188 190 195 200 202 205 203 203 197 210 204 200 200 210 223 227 235 238
14 1 338 310 290 263 255 252 217 208 200 193 188 173 168 162 154 157 161 153 156 151 154 164 165 164 169 176 181 179 178 181 182 182 184 187 190 194 194 195 181 147 180 193 188 188 202 201 200 202 205 211 206 203 220 218 218 218 211 218 230 237 229
64 27 2 351 351 326 300 284 252 222 206 195 190 172 163 153 156 163 167 168 168 167 171 173 179 182 183 185 184 180 175 180 184 187 187 189 193 193 173 161 154 167 185 182 185 195 205 194 198 195 200 210 203 211 218 224 223 219 218 220 225 234 237
350 44 36 7 356 357 349 331 291 242 216 199 188 164 145 127 135 159 184 203 206 185 185 185 190 186 184 179 183 187 184 188 188 187 188 190 181 169 151 144 166 182 182 185 189 196 201 198 194 198 201 208 209 204 211 219 222 223 224 228 231 233 237
346 344 10 30 27 21 14 2 344 274 202 186 165 153 144 151 172 174 192 199 205 203 200 178 185 183 183 179 179 175 178 183 176 170 165 163 157 170 175 175 179 183 184 194 199 203 198 194 199 203 199 208 218 222 224 231 228 227 228 227 232 240 243